SCP
0 0 0 0 0 -0 -0 0 -0 -0 -0 -0 -0 -0 -0 -0 -0 -0 -0 -0 -0 -0 -0 -0 -0 -0 -0 -0 0 0 0 0 -0 0 0 0 0 0 0 0 0 0 0 0 0 -0 0
0 0 0 0 0 0 -0 -0 -0 0 0 -0 -0 -0 -0 -0 -0 -0 -0 -0 -0 0 0 0 0 0 0 0 0 0 0 0 -0 -0 0 0 0 0 0 0 0 0 0 0 0 0 0
0 0 0 0 0 0 0 0 -0 -0 -0 -0 -0 -0 -0 -0 -0 -0 0 0 0 0 0 0 0 0 0 0 0 0 0 0 0 0 0 0 0 0 0 0 0 0 0 0 0 -0 -0
0 0 0 0 0 0 0 0 0 0 0 -0 -0 -0 -0 -0 -0 -0 -0 0 0 0 0 -0 0 0 0 0 0 0 0 0 0 0 0 0 0 0 0 0 0 0 0 0 -0 -0 0
0 0 0 0 0 0 0 0 -0 0 0 0 0 -0 -0 0 0 0 0 0 -0 -0 -0 0 0 0 0 0 0 0 0 0 0 0 0 0 0 0 0 0 -0 0 0 0 0 0 0
0 0 0 0 0 0 0 0 -0 -0 -0 -0 0 0 -0 -0 0 0 0 -0 -0 -0 -0 -0 0 0 0 0 0 0 -0 0 0 0 0 0 0 0 0 0 0 -0 -0 0 0 0 0
0 0 0 0 0 0 0 0 0 0 0 0 -0 -0 -0 -0 0 0 0 0 0 0 -0 0 0 0 0 0 0 0 0 0 0 0 0 0 0 0 -0 -0 0 0 0 0 0 0 0
0 0 0 0 0 0 0 0 0 0 0 0 0 -0 -0 -0 0 -0 -0 0 0 0 0 0 0 0 0 0 0 0 0 0 0 0 0 0 0 0 0 0 0 0 0 0 -0 0 0
0 0 0 0 0 0 0 0 0 0 0 0 0 0 -0 -0 -0 -0 -0 0 0 0 0 0 0 0 0 -0 0 0 -0 -0 0 0 0 0 0 0 0 0 0 0 0 0 0 0 0
0 0 0 0 0 0 0 0 0 0 0 0 0 0 0 -0 -0 0 0 0 -0 -0 0 0 0 0 0 -0 0 0 -0 0 0 0 0 0 0 0 0 0 0 0 0 0 0 0 -0
0 0 0 0 0 0 0 0 0 0 0 0 0 0 0 -0 -0 0 0 -0 -0 -0 0 0 0 0 0 -0 0 0 0 0 0 0 0 0 0 0 0 0 0 0 0 0 0 0 0
0 0 0 0 0 0 0 0 0 0 0 0 0 0 0 0 0 -0 -0 -0 -0 0 0 0 0 0 0 0 0 0 0 0 0 0 0 0 0 0 0 0 0 0 0 0 0 0 0
0 0 0 0 0 0 0 -0 0 0 0 0 0 0 -0 -0 0 -0 -0 -0 0 -0 0 0 0 0 -0 0 0 0 0 0 0 0 0 0 0 0 0 0 0 0 0 0 0 0 0
0 0 0 0 0 0 0 -0 0 0 0 0 0 0 0 -0 -0 -0 -0 -0 0 -0 0 0 0 0 -0 0 0 0 0 0 0 0 0 0 0 0 0 0 0 0 0 0 0 0 0
0 0 0 0 0 0 0 -0 0 0 0 0 -0 0 0 0 -0 -0 -0 0 0 0 0 0 0 -0 0 0 0 0 0 -0 0 0 0 0 0 0 0 0 0 0 0 0 0 0 0
0 0 0 0 0 -0 -0 0 0 0 0 0 0 0 0 0 -0 -0 -0 -0 0 0 0 -0 0 -0 0 0 0 0 0 0 0 0 0 0 0 0 0 0 0 0 0 0 0 0 0
0 0 0 0 -0 -0 0 0 0 -0 0 0 0 0 0 0 -0 -0 -0 -0 0 0 -0 -0 -0 0 -0 0 -0 0 0 0 0 0 0 0 0 0 0 0 0 0 0 0 0 0 0
0 0 0 0 0 0 0 0 0 0 0 0 0 0 0 0 0 0 -0 0 0 0 0 0 0 0 0 0 0 0 0 0 0 0 0 0 0 0 -0 0 0 0 0 0 0 0 0
0 0 0 0 0 0 0 0 0 0 0 0 0 -0 0 0 0 0 0 0 0 0 0 0 0 0 0 0 0 0 0 0 0 0 0 0 0 0 0 0 0 0 0 0 0 0 0
0 0 0 0 0 0 0 0 0 0 0 0 0 0 0 0 -0 0 0 0 0 0 0 0 0 0 0 0 0 0 0 0 0 0 0 0 0 0 0 0 0 0 0 0 0 0 0
0 0 0 0 0 0 0 0 0 0 0 0 0 0 0 0 0 0 -0 0 0 0 0 0 0 0 0 0 0 0 0 0 0 0 0 0 0 0 0 0 0 0 0 0 0 0 0
0 0 0 0 0 0 0 0 0 0 0 0 0 0 0 0 0 0 0 -0 0 0 0 0 0 0 0 0 0 0 0 0 0 0 0 0 0 0 0 0 0 0 0 0 0 0 0
0 0 0 0 0 0 0 0 0 0 0 0 0 0 0 0 0 0 0 0 0 0 0 0 0 0 0 0 0 0 0 0 0 0 0 0 0 0 0 0 0 0 0 0 0 0 0
0 0 0 0 0 0 0 0 0 0 0 0 0 0 0 0 0 0 0 0 0 0 0 0 0 0 0 0 0 0 0 0 0 0 0 0 0 0 0 0 0 0 0 0 0 0 0
0 0 0 0 0 0 0 0 0 0 0 0 0 0 0 0 0 0 -0 0 0 0 0 0 0 0 0 0 0 0 0 0 0 0 0 0 0 0 0 0 0 0 0 0 0 0 0
0 0 0 0 0 0 0 0 0 0 0 0 0 0 0 0 0 0 0 -0 0 0 0 0 0 0 0 0 0 0 0 0 0 0 0 0 0 0 0 0 0 0 0 0 0 0 1
0 0 0 0 0 0 0 0 0 0 0 0 0 0 0 0 0 0 0 -0 0 0 0 0 0 0 0 0 0 0 0 0 0 0 0 0 0 0 0 0 0 0 0 0 0 0 0
0 0 0 0 0 0 0 0 0 0 0 0 0 0 0 0 0 0 0 0 -0 0 0 0 0 0 0 0 0 0 0 0 0 0 0 0 0 0 0 0 0 0 0 0 0 0 0
0 0 0 0 0 0 0 0 0 0 0 0 0 0 0 0 0 0 0 0 0 0 0 0 0 0 0 0 0 0 0 0 0 0 0 0 0 0 0 0 0 0 1 0 0 0 0
Wind_Speed_500mb
39 39 41 43 46 50 51 51 44 43 39 36 37 39 38 38 35 32 28 26 22 20 21 16 10 3 4 12 0 10 14 25 31 18 20 23 26 30 20 4 17 21 22 8 9 19 24
44 45 46 48 51 53 51 48 48 46 42 38 36 38 39 38 36 33 25 20 22 19 17 13 6 4 4 21 3 5 21 29 20 22 20 21 21 15 24 12 7 25 10 3 8 16 8
44 44 43 44 47 49 51 51 52 46 43 40 38 38 38 38 36 34 25 16 17 16 13 9 2 6 13 4 12 17 24 25 21 19 18 20 14 19 9 12 6 6 4 4 15 33 30
45 47 48 49 49 48 48 49 50 49 45 41 39 37 37 37 35 33 18 14 14 10 9 8 3 8 2 10 16 24 24 23 21 18 16 15 20 28 26 9 14 10 7 6 39 20 17
48 50 54 55 55 53 50 46 47 49 47 44 39 36 35 35 32 28 13 14 8 7 6 6 5 6 12 17 22 25 24 22 20 17 15 13 21 30 24 22 27 22 14 20 30 26 20
49 53 56 57 57 56 56 48 43 46 48 48 41 37 34 34 31 19 10 11 7 4 3 6 8 12 17 24 25 28 25 17 21 18 15 20 22 24 26 28 29 32 40 30 15 12 22
49 52 55 58 54 59 56 47 40 43 46 46 39 37 32 30 27 8 10 8 4 5 16 15 12 6 25 22 22 28 26 22 19 25 22 33 22 30 37 37 12 24 11 3 12 20 17
52 56 58 58 60 60 59 52 46 47 48 44 37 36 31 26 21 1 8 9 7 7 13 11 12 11 11 23 27 29 29 24 23 27 30 21 31 30 36 31 28 19 29 51 30 16 17
53 55 59 58 60 58 56 53 52 52 50 41 38 34 31 25 11 1 4 1 5 7 17 15 16 18 22 25 28 35 34 34 24 30 32 26 25 28 9 13 18 32 28 23 16 26 23
51 52 54 59 61 57 55 54 55 52 50 43 38 36 30 18 6 5 5 4 8 4 11 22 27 15 19 18 11 26 34 23 22 29 23 31 8 8 20 31 30 34 30 9 24 19 27
53 52 51 53 56 56 54 56 55 54 50 43 39 36 29 16 10 7 4 4 6 6 11 29 25 28 34 29 33 24 20 19 25 24 19 28 21 25 27 30 26 31 11 22 20 28 31
56 53 52 52 55 56 54 55 58 54 49 43 39 36 25 10 7 10 8 7 3 14 4 18 21 25 27 27 21 25 26 21 13 19 23 21 13 22 27 28 18 29 6 21 27 28 29
58 53 50 51 53 53 52 57 56 52 48 44 38 30 15 10 3 9 8 12 14 16 16 22 28 33 36 23 23 32 30 28 20 23 23 27 21 28 20 24 22 31 22 19 24 26 27
53 52 47 49 53 50 46 54 50 48 46 43 36 17 6 10 10 9 10 18 17 6 13 11 22 28 31 27 26 30 26 23 15 19 20 25 27 31 27 36 25 31 36 24 32 25 30
53 49 44 45 48 41 42 47 50 46 44 42 26 4 5 5 12 11 24 20 12 6 8 18 21 26 20 20 9 22 25 26 13 13 18 13 6 27 17 25 29 31 33 39 41 38 18
51 43 40 40 39 36 36 45 51 49 42 40 21 10 12 9 10 11 20 30 4 4 6 16 30 29 26 32 22 25 18 9 12 10 19 10 10 20 23 14 21 32 10 28 23 31 30
47 37 34 36 32 30 35 43 50 52 36 33 9 13 14 11 9 22 22 18 7 12 17 18 28 21 25 24 30 29 22 14 4 9 17 22 21 21 17 23 30 24 24 25 33 28 26
41 34 34 28 25 26 32 39 48 47 36 21 17 12 10 13 21 29 24 7 4 23 20 12 12 22 20 17 22 21 15 7 3 12 22 22 14 17 30 13 13 15 22 37 18 29 21
37 37 25 23 25 30 34 35 41 44 39 31 15 26 7 18 17 20 16 10 20 14 20 20 14 10 8 16 9 8 14 4 3 11 15 6 17 15 19 21 15 23 22 18 23 25 25
32 24 22 26 30 33 34 32 33 37 35 22 14 9 20 25 39 26 18 25 21 12 9 9 9 14 19 15 6 12 14 9 3 1 8 9 30 29 12 13 11 34 14 19 22 20 23
31 30 31 32 34 33 32 33 30 27 31 19 13 11 12 9 24 25 31 23 30 21 18 21 17 22 22 16 17 19 18 11 16 9 11 12 27 25 33 10 16 6 17 18 23 25 27
41 41 39 38 37 37 38 36 33 23 24 13 15 16 12 33 25 22 21 29 32 31 25 27 19 16 11 15 15 9 19 21 17 16 21 23 25 21 25 20 22 24 21 23 22 22 19
45 45 45 44 44 42 42 38 34 27 18 12 17 20 20 25 31 26 28 32 32 25 14 13 20 17 18 11 6 7 5 11 10 13 16 19 20 17 30 35 30 33 28 29 28 28 28
47 49 48 41 40 36 31 33 33 28 25 26 24 14 21 25 26 27 34 34 26 23 22 20 18 21 16 18 9 11 12 11 12 12 20 13 14 21 22 25 40 14 24 12 19 30 23
50 49 48 44 42 36 34 33 32 31 32 35 35 22 13 22 37 24 35 26 28 17 16 18 11 13 20 19 14 12 13 11 17 9 15 19 16 19 25 26 29 20 13 18 21 26 32
53 53 54 54 53 47 43 40 39 40 39 42 43 41 14 19 23 26 21 26 15 22 20 18 14 16 21 14 15 16 16 19 17 16 15 18 12 16 16 26 35 29 20 12 1 20 30
55 56 59 58 56 51 50 45 41 41 42 46 53 48 34 14 40 14 14 22 35 31 21 27 21 14 23 12 12 16 14 4 11 19 16 20 16 24 22 23 17 18 7 2 22 2 13
60 59 61 59 57 55 48 42 43 42 44 46 51 42 51 18 20 15 18 26 46 41 17 32 20 22 20 13 8 11 10 14 16 1 10 17 15 17 19 26 26 17 10 14 11 6 10
60 60 59 60 57 56 51 47 48 48 48 45 50 46 43 33 17 31 24 16 12 2 28 43 9 33 18 9 5 11 8 6 17 12 11 10 11 13 16 12 11 10 13 8 8 7 8
Wind_Direction_500mb
14 13 12 10 8 8 7 7 3 1 355 350 350 349 344 342 341 339 333 325 321 320 310 297 300 280 180 223 226 302 187 164 161 178 196 213 216 236 256 186 207 331 98 37 163 176 152
11 8 4 1 359 1 2 4 1 356 356 350 348 348 344 340 338 337 332 327 325 326 325 313 273 205 208 240 142 181 157 156 171 182 199 214 232 257 303 271 222 145 76 60 250 142 164
6 2 359 357 355 355 356 357 358 358 352 348 346 347 342 340 337 338 334 329 326 334 341 324 260 179 257 57 158 163 170 168 179 187 200 216 249 245 253 209 80 84 201 90 245 172 158
2 359 356 354 351 350 349 350 351 353 350 346 344 343 340 339 339 336 332 333 328 335 2 351 158 168 19 151 162 160 163 181 193 205 221 226 231 251 258 79 196 139 333 170 272 200 173
359 357 355 352 348 346 343 341 344 346 344 344 341 340 338 338 338 336 334 334 326 326 324 20 72 207 150 174 170 168 166 172 180 198 218 232 216 231 220 235 198 166 161 235 214 187 171
358 357 355 352 347 344 340 337 340 343 341 339 339 340 341 339 337 339 335 339 317 318 335 102 241 236 175 188 164 174 176 183 181 183 190 201 214 222 237 222 214 186 163 211 206 191 237
355 354 352 351 354 356 357 353 347 343 341 339 340 341 344 336 336 338 353 334 284 208 221 305 142 334 136 150 163 179 177 177 190 197 201 203 214 213 213 225 248 309 163 36 187 223 262
350 351 350 352 356 358 357 357 352 348 342 340 340 339 343 335 334 279 56 295 21 338 280 213 229 238 180 176 178 183 181 197 201 211 218 192 224 224 236 227 251 219 231 186 198 204 256
346 345 346 350 351 353 354 354 351 347 343 341 338 337 341 334 337 190 291 186 331 316 247 147 195 196 185 188 189 178 193 210 201 225 203 213 206 236 178 231 236 240 240 181 209 176 236
338 337 339 343 348 345 347 349 348 345 344 339 336 332 338 340 48 276 227 249 328 278 258 144 180 181 176 220 172 168 197 204 213 225 196 235 166 141 210 230 218 237 237 282 184 224 214
329 330 332 335 340 343 340 344 343 343 341 338 333 329 331 312 250 251 188 311 282 243 246 147 148 152 174 209 133 191 192 208 234 224 204 214 163 205 219 221 219 243 230 210 249 243 265
321 322 325 328 331 336 335 335 339 340 338 336 332 327 325 317 256 214 235 284 217 235 183 154 149 187 184 208 198 149 184 229 289 212 222 264 206 214 223 218 220 247 163 249 244 250 231
311 314 317 322 326 329 330 330 332 337 337 337 332 324 310 195 95 217 242 220 222 258 126 150 179 178 196 186 158 172 180 192 188 198 200 209 195 223 250 199 197 235 207 214 219 226 240
315 308 311 317 323 325 327 328 334 338 337 338 332 319 291 223 233 207 238 232 252 10 183 118 181 191 205 171 175 181 188 180 258 257 193 192 192 199 193 233 193 217 226 229 211 229 231
321 316 310 315 325 328 330 332 337 338 336 336 336 313 261 278 216 220 246 232 236 174 108 189 196 197 184 185 214 194 202 208 154 255 314 194 163 166 199 222 245 196 226 252 268 277 280
326 317 317 321 324 330 334 334 336 338 337 336 335 253 208 211 198 234 249 258 41 334 240 220 198 199 186 200 212 205 189 66 154 257 289 355 152 188 182 239 235 262 287 224 241 257 259
328 321 317 319 323 328 331 330 333 336 340 338 325 245 177 195 220 236 243 243 163 175 222 222 221 185 225 194 220 203 184 120 244 201 265 283 249 151 152 209 210 202 233 242 250 219 249
328 322 317 322 327 328 326 332 332 338 341 354 287 250 165 193 235 230 243 222 347 169 197 200 300 221 205 182 223 200 174 55 244 284 222 232 280 183 204 121 326 313 225 225 236 231 249
324 315 319 326 320 318 327 333 337 342 344 348 282 286 242 203 246 233 214 219 216 185 198 192 178 249 299 203 162 247 92 88 223 231 354 294 248 228 156 175 210 249 232 268 261 267 251
335 327 323 316 317 318 321 326 332 337 344 345 289 269 203 223 256 285 255 224 199 269 154 260 143 176 181 182 212 189 155 164 138 219 336 300 266 280 275 17 337 194 210 232 257 220 239
324 318 310 310 311 312 315 316 317 328 334 338 246 267 348 251 229 240 262 229 203 178 215 200 199 207 207 196 193 194 166 151 196 158 237 252 262 272 273 129 284 309 200 203 239 263 274
311 310 307 303 303 306 303 304 307 306 316 296 287 307 305 267 283 275 234 245 222 188 189 196 242 198 175 237 216 236 204 194 203 188 234 237 253 277 263 258 240 254 227 245 257 271 274
296 299 301 304 298 303 301 294 295 290 288 270 266 275 267 277 243 240 240 222 227 183 214 259 216 175 211 117 79 2 355 331 19 252 232 249 254 220 253 246 236 243 246 253 255 245 248
295 297 297 297 295 297 298 290 295 282 273 258 253 272 267 255 247 246 236 223 217 184 193 192 193 216 95 117 161 208 197 198 218 231 270 239 246 269 263 263 244 226 265 292 285 239 251
291 292 291 289 288 286 285 281 282 278 276 265 250 232 251 261 271 247 246 229 216 147 152 184 105 96 146 169 194 170 182 189 205 205 234 236 266 244 247 246 261 246 176 235 247 250 345
286 286 286 285 286 285 282 281 276 273 270 263 254 226 219 290 246 295 247 230 189 183 152 110 148 149 178 190 215 209 190 199 174 175 225 232 233 275 237 252 258 62 60 24 308 234 23
284 280 281 282 284 284 283 280 275 273 267 254 245 223 206 234 253 322 242 232 208 168 169 155 154 166 201 232 224 217 208 225 189 204 170 207 230 229 232 252 257 72 77 173 234 57 35
286 282 277 278 281 282 282 278 276 269 262 247 242 225 187 220 255 275 292 273 222 201 160 164 178 195 195 177 192 258 280 174 244 279 175 213 203 226 232 259 239 6 252 270 51 68 16
288 284 281 276 276 279 276 270 271 261 251 238 229 208 182 187 219 213 274 257 305 320 182 161 255 176 198 145 163 261 216 153 222 188 180 252 273 333 336 36 71 50 38 39 11 342 347
Wind_Speed_850mb
39 39 41 43 46 50 51 51 44 43 39 36 37 39 38 38 35 32 28 26 22 20 21 16 10 3 4 12 0 10 14 25 31 18 20 23 26 30 20 4 17 21 22 8 9 19 24
44 45 46 48 51 53 51 48 48 46 42 38 36 38 39 38 36 33 25 20 22 19 17 13 6 4 4 21 3 5 21 29 20 22 20 21 21 15 24 12 7 25 10 3 8 16 8
44 44 43 44 47 49 51 51 52 46 43 40 38 38 38 38 36 34 25 16 17 16 13 9 2 6 13 4 12 17 24 25 21 19 18 20 14 19 9 12 6 6 4 4 15 33 30
45 47 48 49 49 48 48 49 50 49 45 41 39 37 37 37 35 33 18 14 14 10 9 8 3 8 2 10 16 24 24 23 21 18 16 15 20 28 26 9 14 10 7 6 39 20 17
48 50 54 55 55 53 50 46 47 49 47 44 39 36 35 35 32 28 13 14 8 7 6 6 5 6 12 17 22 25 24 22 20 17 15 13 21 30 24 22 27 22 14 20 30 26 20
49 53 56 57 57 56 56 48 43 46 48 48 41 37 34 34 31 19 10 11 7 4 3 6 8 12 17 24 25 28 25 17 21 18 15 20 22 24 26 28 29 32 40 30 15 12 22
49 52 55 58 54 59 56 47 40 43 46 46 39 37 32 30 27 8 10 8 4 5 16 15 12 6 25 22 22 28 26 22 19 25 22 33 22 30 37 37 12 24 11 3 12 20 17
52 56 58 58 60 60 59 52 46 47 48 44 37 36 31 26 21 1 8 9 7 7 13 11 12 11 11 23 27 29 29 24 23 27 30 21 31 30 36 31 28 19 29 51 30 16 17
53 55 59 58 60 58 56 53 52 52 50 41 38 34 31 25 11 1 4 1 5 7 17 15 16 18 22 25 28 35 34 34 24 30 32 26 25 28 9 13 18 32 28 23 16 26 23
51 52 54 59 61 57 55 54 55 52 50 43 38 36 30 18 6 5 5 4 8 4 11 22 27 15 19 18 11 26 34 23 22 29 23 31 8 8 20 31 30 34 30 9 24 19 27
53 52 51 53 56 56 54 56 55 54 50 43 39 36 29 16 10 7 4 4 6 6 11 29 25 28 34 29 33 24 20 19 25 24 19 28 21 25 27 30 26 31 11 22 20 28 31
56 53 52 52 55 56 54 55 58 54 49 43 39 36 25 10 7 10 8 7 3 14 4 18 21 25 27 27 21 25 26 21 13 19 23 21 13 22 27 28 18 29 6 21 27 28 29
58 53 50 51 53 53 52 57 56 52 48 44 38 30 15 10 3 9 8 12 14 16 16 22 28 33 36 23 23 32 30 28 20 23 23 27 21 28 20 24 22 31 22 19 24 26 27
53 52 47 49 53 50 46 54 50 48 46 43 36 17 6 10 10 9 10 18 17 6 13 11 22 28 31 27 26 30 26 23 15 19 20 25 27 31 27 36 25 31 36 24 32 25 30
53 49 44 45 48 41 42 47 50 46 44 42 26 4 5 5 12 11 24 20 12 6 8 18 21 26 20 20 9 22 25 26 13 13 18 13 6 27 17 25 29 31 33 39 41 38 18
51 43 40 40 39 36 36 45 51 49 42 40 21 10 12 9 10 11 20 30 4 4 6 16 30 29 26 32 22 25 18 9 12 10 19 10 10 20 23 14 21 32 10 28 23 31 30
47 37 34 36 32 30 35 43 50 52 36 33 9 13 14 11 9 22 22 18 7 12 17 18 28 21 25 24 30 29 22 14 4 9 17 22 21 21 17 23 30 24 24 25 33 28 26
41 34 34 28 25 26 32 39 48 47 36 21 17 12 10 13 21 29 24 7 4 23 20 12 12 22 20 17 22 21 15 7 3 12 22 22 14 17 30 13 13 15 22 37 18 29 21
37 37 25 23 25 30 34 35 41 44 39 31 15 26 7 18 17 20 16 10 20 14 20 20 14 10 8 16 9 8 14 4 3 11 15 6 17 15 19 21 15 23 22 18 23 25 25
32 24 22 26 30 33 34 32 33 37 35 22 14 9 20 25 39 26 18 25 21 12 9 9 9 14 19 15 6 12 14 9 3 1 8 9 30 29 12 13 11 34 14 19 22 20 23
31 30 31 32 34 33 32 33 30 27 31 19 13 11 12 9 24 25 31 23 30 21 18 21 17 22 22 16 17 19 18 11 16 9 11 12 27 25 33 10 16 6 17 18 23 25 27
41 41 39 38 37 37 38 36 33 23 24 13 15 16 12 33 25 22 21 29 32 31 25 27 19 16 11 15 15 9 19 21 17 16 21 23 25 21 25 20 22 24 21 23 22 22 19
45 45 45 44 44 42 42 38 34 27 18 12 17 20 20 25 31 26 28 32 32 25 14 13 20 17 18 11 6 7 5 11 10 13 16 19 20 17 30 35 30 33 28 29 28 28 28
47 49 48 41 40 36 31 33 33 28 25 26 24 14 21 25 26 27 34 34 26 23 22 20 18 21 16 18 9 11 12 11 12 12 20 13 14 21 22 25 40 14 24 12 19 30 23
50 49 48 44 42 36 34 33 32 31 32 35 35 22 13 22 37 24 35 26 28 17 16 18 11 13 20 19 14 12 13 11 17 9 15 19 16 19 25 26 29 20 13 18 21 26 32
53 53 54 54 53 47 43 40 39 40 39 42 43 41 14 19 23 26 21 26 15 22 20 18 14 16 21 14 15 16 16 19 17 16 15 18 12 16 16 26 35 29 20 12 1 20 30
55 56 59 58 56 51 50 45 41 41 42 46 53 48 34 14 40 14 14 22 35 31 21 27 21 14 23 12 12 16 14 4 11 19 16 20 16 24 22 23 17 18 7 2 22 2 13
60 59 61 59 57 55 48 42 43 42 44 46 51 42 51 18 20 15 18 26 46 41 17 32 20 22 20 13 8 11 10 14 16 1 10 17 15 17 19 26 26 17 10 14 11 6 10
60 60 59 60 57 56 51 47 48 48 48 45 50 46 43 33 17 31 24 16 12 2 28 43 9 33 18 9 5 11 8 6 17 12 11 10 11 13 16 12 11 10 13 8 8 7 8
Wind_Direction_850mb
14 13 12 10 8 8 7 7 3 1 355 350 350 349 344 342 341 339 333 325 321 320 310 297 300 280 180 223 226 302 187 164 161 178 196 213 216 236 256 186 207 331 98 37 163 176 152
11 8 4 1 359 1 2 4 1 356 356 350 348 348 344 340 338 337 332 327 325 326 325 313 273 205 208 240 142 181 157 156 171 182 199 214 232 257 303 271 222 145 76 60 250 142 164
6 2 359 357 355 355 356 357 358 358 352 348 346 347 342 340 337 338 334 329 326 334 341 324 260 179 257 57 158 163 170 168 179 187 200 216 249 245 253 209 80 84 201 90 245 172 158
2 359 356 354 351 350 349 350 351 353 350 346 344 343 340 339 339 336 332 333 328 335 2 351 158 168 19 151 162 160 163 181 193 205 221 226 231 251 258 79 196 139 333 170 272 200 173
359 357 355 352 348 346 343 341 344 346 344 344 341 340 338 338 338 336 334 334 326 326 324 20 72 207 150 174 170 168 166 172 180 198 218 232 216 231 220 235 198 166 161 235 214 187 171
358 357 355 352 347 344 340 337 340 343 341 339 339 340 341 339 337 339 335 339 317 318 335 102 241 236 175 188 164 174 176 183 181 183 190 201 214 222 237 222 214 186 163 211 206 191 237
355 354 352 351 354 356 357 353 347 343 341 339 340 341 344 336 336 338 353 334 284 208 221 305 142 334 136 150 163 179 177 177 190 197 201 203 214 213 213 225 248 309 163 36 187 223 262
350 351 350 352 356 358 357 357 352 348 342 340 340 339 343 335 334 279 56 295 21 338 280 213 229 238 180 176 178 183 181 197 201 211 218 192 224 224 236 227 251 219 231 186 198 204 256
346 345 346 350 351 353 354 354 351 347 343 341 338 337 341 334 337 190 291 186 331 316 247 147 195 196 185 188 189 178 193 210 201 225 203 213 206 236 178 231 236 240 240 181 209 176 236
338 337 339 343 348 345 347 349 348 345 344 339 336 332 338 340 48 276 227 249 328 278 258 144 180 181 176 220 172 168 197 204 213 225 196 235 166 141 210 230 218 237 237 282 184 224 214
329 330 332 335 340 343 340 344 343 343 341 338 333 329 331 312 250 251 188 311 282 243 246 147 148 152 174 209 133 191 192 208 234 224 204 214 163 205 219 221 219 243 230 210 249 243 265
321 322 325 328 331 336 335 335 339 340 338 336 332 327 325 317 256 214 235 284 217 235 183 154 149 187 184 208 198 149 184 229 289 212 222 264 206 214 223 218 220 247 163 249 244 250 231
311 314 317 322 326 329 330 330 332 337 337 337 332 324 310 195 95 217 242 220 222 258 126 150 179 178 196 186 158 172 180 192 188 198 200 209 195 223 250 199 197 235 207 214 219 226 240
315 308 311 317 323 325 327 328 334 338 337 338 332 319 291 223 233 207 238 232 252 10 183 118 181 191 205 171 175 181 188 180 258 257 193 192 192 199 193 233 193 217 226 229 211 229 231
321 316 310 315 325 328 330 332 337 338 336 336 336 313 261 278 216 220 246 232 236 174 108 189 196 197 184 185 214 194 202 208 154 255 314 194 163 166 199 222 245 196 226 252 268 277 280
326 317 317 321 324 330 334 334 336 338 337 336 335 253 208 211 198 234 249 258 41 334 240 220 198 199 186 200 212 205 189 66 154 257 289 355 152 188 182 239 235 262 287 224 241 257 259
328 321 317 319 323 328 331 330 333 336 340 338 325 245 177 195 220 236 243 243 163 175 222 222 221 185 225 194 220 203 184 120 244 201 265 283 249 151 152 209 210 202 233 242 250 219 249
328 322 317 322 327 328 326 332 332 338 341 354 287 250 165 193 235 230 243 222 347 169 197 200 300 221 205 182 223 200 174 55 244 284 222 232 280 183 204 121 326 313 225 225 236 231 249
324 315 319 326 320 318 327 333 337 342 344 348 282 286 242 203 246 233 214 219 216 185 198 192 178 249 299 203 162 247 92 88 223 231 354 294 248 228 156 175 210 249 232 268 261 267 251
335 327 323 316 317 318 321 326 332 337 344 345 289 269 203 223 256 285 255 224 199 269 154 260 143 176 181 182 212 189 155 164 138 219 336 300 266 280 275 17 337 194 210 232 257 220 239
324 318 310 310 311 312 315 316 317 328 334 338 246 267 348 251 229 240 262 229 203 178 215 200 199 207 207 196 193 194 166 151 196 158 237 252 262 272 273 129 284 309 200 203 239 263 274
311 310 307 303 303 306 303 304 307 306 316 296 287 307 305 267 283 275 234 245 222 188 189 196 242 198 175 237 216 236 204 194 203 188 234 237 253 277 263 258 240 254 227 245 257 271 274
296 299 301 304 298 303 301 294 295 290 288 270 266 275 267 277 243 240 240 222 227 183 214 259 216 175 211 117 79 2 355 331 19 252 232 249 254 220 253 246 236 243 246 253 255 245 248
295 297 297 297 295 297 298 290 295 282 273 258 253 272 267 255 247 246 236 223 217 184 193 192 193 216 95 117 161 208 197 198 218 231 270 239 246 269 263 263 244 226 265 292 285 239 251
291 292 291 289 288 286 285 281 282 278 276 265 250 232 251 261 271 247 246 229 216 147 152 184 105 96 146 169 194 170 182 189 205 205 234 236 266 244 247 246 261 246 176 235 247 250 345
286 286 286 285 286 285 282 281 276 273 270 263 254 226 219 290 246 295 247 230 189 183 152 110 148 149 178 190 215 209 190 199 174 175 225 232 233 275 237 252 258 62 60 24 308 234 23
284 280 281 282 284 284 283 280 275 273 267 254 245 223 206 234 253 322 242 232 208 168 169 155 154 166 201 232 224 217 208 225 189 204 170 207 230 229 232 252 257 72 77 173 234 57 35
286 282 277 278 281 282 282 278 276 269 262 247 242 225 187 220 255 275 292 273 222 201 160 164 178 195 195 177 192 258 280 174 244 279 175 213 203 226 232 259 239 6 252 270 51 68 16
288 284 281 276 276 279 276 270 271 261 251 238 229 208 182 187 219 213 274 257 305 320 182 161 255 176 198 145 163 261 216 153 222 188 180 252 273 333 336 36 71 50 38 39 11 342 347